FW7273 Weather Reports


time (UTC)temp
F
wind
direction
speed
knots
gust
knots
rain 1hr
in
rain 24hr
in
rain mn
in
humidity
%
barometer
mb
20260906022310 87 212 2.6 4.3 0.00 0.00 0.00 69 1015.6
20260906021251 87 1.7 1.7 0.00 0.00 0.00 68 1015.5
20260906020253 87 197 2.6 4.3 0.00 0.00 0.00 66 1015.4
20260906015336 87 180 1.7 1.7 0.00 0.00 0.00 64 1015.3
20260906014317 87 139 1.7 2.6 0.00 0.00 0.00 63 1015.1
20260906013259 0 0.0 0.0 0.00 0.00 0.00 1015.0
20260906012301 0 0.0 0.0 0.00 0.00 0.00 1014.9
20260906011245 88 189 1.7 1.7 0.00 0.00 0.00 62 1014.8
20260906010247 88 158 0.9 1.7 0.00 0.00 0.00 61 1014.7
20260906005250 89 218 1.7 2.6 0.00 0.00 0.00 60 1014.6
20260906004306 89 164 1.7 1.7 0.00 0.00 0.00 58 1014.6
20260906003253 91 154 1.7 2.6 0.00 0.00 0.00 58 1014.6
20260906002255 92 186 0.9 1.7 0.00 0.00 0.00 55 1014.6
20260906001257 92 203 0.0 0.9 0.00 7.38 0.00 52 1014.6
20260906000320 93 0.0 0.0 0.00 7.38 0.00 52 1014.6
20260905235306 93 254 0.9 1.7 0.00 7.38 0.00 52 1014.6
20260905234246 93 270 0.9 2.6 0.00 7.38 0.00 54 1014.6
20260905233304 92 232 0.9 0.9 0.00 7.38 0.00 55 1014.5
20260905232305 93 289 1.7 3.5 0.00 7.38 0.00 54 1014.6
20260905231246 94 0.0 0.0 0.00 7.38 0.00 46 1014.6
20260905230248 94 0.0 0.0 0.00 7.38 0.00 46 1014.7
20260905225251 94 236 0.9 0.9 0.00 7.38 0.00 47 1014.8
20260905224253 92 203 3.5 6.1 0.00 7.38 0.00 54 1014.9
20260905223255 96 192 2.6 3.5 0.00 7.38 0.00 50 1014.8
20260905222251 0 0.0 0.0 0.00 7.38 0.00 1014.6
20260905221308 98 338 3.5 4.3 0.00 7.38 0.00 45 1014.5
20260905220301 99 140 1.7 3.5 0.00 7.38 0.00 43 1014.5
20260905215246 100 94 4.3 6.1 0.00 7.38 0.00 43 1014.4
20260905214248 101 150 4.3 5.2 0.00 7.38 0.00 40 1014.3
20260905213250 100 135 3.5 4.3 0.00 7.38 0.00 45 1014.4
20260905212313 100 187 6.1 7.0 0.00 7.38 0.00 45 1014.4
20260905211255 101 165 5.2 7.0 0.00 7.38 0.00 42 1014.6
20260905210257 104 148 5.2 7.0 0.00 7.38 0.00 40 1014.6
20260905205319 104 203 4.3 6.1 0.00 7.38 0.00 40 1014.6
20260905204301 103 175 5.2 6.1 0.00 7.38 0.00 41 1014.8
20260905203245 102 171 5.2 8.7 0.00 7.38 0.00 41 1014.8
20260905202247 102 150 2.6 5.2 0.00 7.38 0.00 41 1014.8
20260905201249 103 145 3.5 6.1 0.00 7.38 0.00 40 1014.9
20260905200251 104 131 3.5 4.3 0.00 7.38 0.00 39 1014.9
20260905195254 106 71 4.3 7.0 0.00 7.38 0.00 38 1014.9
20260905194250 105 1.7 3.5 0.00 7.38 0.00 41 1015.1
20260905193246 0 123 4.3 5.2 0.00 7.38 0.00 1015.3
20260905192340 103 92 4.3 6.1 0.00 7.38 0.00 42 1015.6
20260905191342 0 0.0 0.0 0.00 7.38 0.00 1015.7
20260905190249 104 75 4.3 5.2 0.00 7.38 0.00 40 1015.6
20260905185248 0 108 3.5 4.3 0.00 7.38 0.00 1015.6
20260905184250 0 68 5.2 5.2 0.00 7.38 0.00 1016.1
20260905183253 0 106 5.2 5.2 0.00 7.38 0.00 1016.1
20260905182255 103 91 4.3 5.2 0.00 7.38 0.00 45 1016.4
20260905181257 101 22 1.7 3.5 0.00 7.38 0.00 48 1016.4
20260905180258 102 102 4.3 5.2 0.00 7.38 0.00 48 1016.4
20260905175301 0 158 1.7 1.7 0.00 7.38 0.00 1016.4
20260905174245 0 0.0 0.0 0.00 7.38 0.00 1016.4
20260905173247 100 121 2.6 3.5 0.00 7.38 0.00 51 1016.4
20260905172330 99 169 1.7 2.6 0.00 7.38 0.00 52 1016.7
20260905171251 99 58 2.6 3.5 0.00 7.38 0.00 52 1016.7
20260905170248 99 343 1.7 2.6 0.00 7.38 0.00 53 1016.8
20260905165256 98 57 4.3 5.2 0.00 7.38 0.00 54 1016.9
20260905164258 97 203 0.9 1.7 0.00 7.38 0.00 55 1017.1
20260905163301 96 101 3.5 5.2 0.00 7.38 0.00 56 1017.2
20260905162322 96 98 2.6 3.5 0.00 7.38 0.00 56 1017.2
20260905161246 96 81 3.5 4.3 0.00 7.38 0.00 56 1017.4
20260905160249 95 135 1.7 2.6 0.00 7.38 0.00 57 1017.4
20260905155331 94 90 1.7 1.7 0.00 7.38 0.00 59 1017.4
20260905154255 94 82 2.6 3.5 0.00 7.38 0.00 59 1017.4
20260905153255 94 80 3.5 4.3 0.00 7.38 0.00 58 1017.4
20260905152257 93 90 2.6 4.3 0.00 7.38 0.00 60 1017.4
20260905151300 92 103 1.7 2.6 0.00 7.38 0.00 60 1017.4
20260905150302 91 53 3.5 4.3 0.00 7.38 0.00 62 1017.4
20260905145246 91 45 3.5 4.3 0.00 7.38 0.00 63 1017.2
20260905144248 90 60 2.6 4.3 0.00 7.38 0.00 64 1017.2
20260905143310 89 111 2.6 3.5 0.00 7.38 0.00 66 1017.2
20260905142246 88 81 0.9 2.6 0.00 7.38 0.00 69 1017.4
20260905141254 87 32 2.6 3.5 0.00 7.38 0.00 71 1017.4
20260905140256 86 61 0.9 1.7 0.00 7.38 0.00 71 1017.3
20260905135258 86 74 1.7 2.6 0.00 7.38 0.00 71 1017.2
20260905134302 85 45 0.0 1.7 0.00 7.38 0.00 72 1017.2
20260905133301 85 0.0 0.0 0.00 7.38 0.00 72 1017.1
20260905132246 86 0.0 0.0 0.00 7.38 0.00 70 1017.2
20260905131248 86 0.0 0.0 0.00 7.38 0.00 72 1017.1
20260905130250 86 0.0 0.0 0.00 7.38 0.00 72 1017.0
20260905125253 86 0.0 0.0 0.00 7.38 0.00 72 1017.0
20260905124254 84 0.0 0.0 0.00 7.38 0.00 74 1016.9
20260905123256 83 0.0 0.0 0.00 7.38 0.00 76 1016.7
20260905122259 81 0.0 0.0 0.00 7.38 0.00 80 1016.7
20260905121255 80 0.0 0.0 0.00 7.38 0.00 82 1016.6
20260905120245 78 0.0 0.0 0.00 7.38 0.00 84 1016.5
20260905115328 79 0.0 0.0 0.00 7.38 0.00 84 1016.5
20260905114250 78 0.0 0.0 0.00 7.38 0.00 84 1016.2
20260905113312 78 0.0 0.0 0.00 7.38 0.00 85 1016.2
20260905112254 78 0.0 0.0 0.00 7.38 0.00 85 1016.1
20260905111311 78 0.0 0.0 0.00 7.38 0.00 84 1016.0
20260905110253 78 0.0 0.0 0.00 7.38 0.00 83 1016.0
20260905105255 78 0.0 0.0 0.00 7.38 0.00 83 1016.1
20260905104257 79 0.0 0.0 0.00 7.38 0.00 83 1016.1
20260905103320 79 0.0 0.0 0.00 7.38 0.00 83 1016.0
20260905102316 79 0.0 0.0 0.00 7.38 0.00 83 1016.2
20260905101339 79 0.0 0.0 0.00 7.38 0.00 84 1016.2
20260905100341 79 0.0 0.0 0.00 7.38 0.00 84 1016.1
20260905095305 79 0.0 0.0 0.00 7.38 0.00 83 1016.1
20260905094247 79 0.0 0.0 0.00 7.38 0.00 82 1016.1
20260905093249 80 0.0 0.0 0.00 7.38 0.00 82 1016.1
20260905092251 80 0.0 0.0 0.00 7.38 0.00 81 1016.2
20260905091247 80 0.0 0.0 0.00 7.38 0.00 81 1016.2
20260905090255 81 0.0 0.0 0.00 7.38 0.00 81 1016.2
20260905085317 81 0.0 0.0 0.00 7.38 0.00 82 1016.2
20260905084259 81 0.0 0.0 0.00 7.38 0.00 82 1016.4
20260905083303 81 0.0 0.0 0.00 7.38 0.00 81 1016.4
20260905082343 82 0.0 0.0 0.00 7.38 0.00 81 1016.4
20260905081307 82 0.0 0.0 0.00 7.38 0.00 80 1016.5
20260905080249 82 0.0 0.0 0.00 7.38 0.00 80 1016.5
20260905075251 82 0.0 0.0 0.00 7.38 0.00 80 1016.5
20260905074253 82 0.0 0.0 0.00 7.38 0.00 79 1016.5
20260905073255 82 0.0 0.0 0.00 7.38 0.00 78 1016.6
20260905072257 82 0.0 0.0 0.00 7.38 0.00 78 1016.7
20260905071259 82 0.0 0.0 0.00 7.38 0.00 77 1016.7
20260905070255 82 0.0 0.0 0.00 7.38 0.00 77 1016.7
20260905065245 83 0.0 0.0 0.00 7.38 0.00 77 1016.6
20260905064247 82 0.0 0.0 0.00 7.38 0.00 77 1016.6
20260905063251 83 0.0 0.0 0.00 7.38 0.00 76 1016.7
20260905062251 83 0.0 0.0 0.00 7.38 0.00 76 1016.9
20260905061253 83 0.0 0.0 0.00 7.38 0.00 76 1016.9
20260905060336 83 0.0 0.0 0.00 7.38 0.00 76 1016.9
20260905055258 83 0.0 0.0 0.00 7.38 0.00 75 1016.9
20260905054320 84 0.0 0.0 0.00 7.38 0.00 73 1016.9
20260905053302 84 0.0 0.0 0.00 7.38 0.00 73 1016.9
20260905052245 84 0.0 0.0 0.00 7.38 0.00 73 1016.7
20260905051248 84 0.0 0.0 0.00 7.38 0.00 72 1016.7
20260905050250 84 0.0 0.0 0.00 7.38 0.00 72 1016.6
20260905045252 84 0.0 0.0 0.00 7.38 7.38 72 1016.6
20260905044254 84 0.0 0.0 0.00 7.38 7.38 72 1016.7
20260905043256 84 0.0 0.0 0.00 7.38 7.38 72 1016.7
20260905042252 85 0.0 0.0 0.00 7.38 7.38 72 1016.6
20260905041248 85 0.0 0.0 0.00 7.38 7.38 71 1016.5
20260905040322 85 0.0 0.0 0.00 7.38 7.38 70 1016.5
20260905035246 86 0.0 0.0 0.00 7.38 7.38 70 1016.5
20260905034248 86 0.0 0.0 0.00 7.38 7.38 69 1016.5
20260905033250 86 0.0 0.0 0.00 7.38 7.38 69 1016.6
20260905032252 87 0.0 0.0 0.00 7.38 7.38 67 1016.7
20260905031255 87 0.0 0.0 0.00 7.38 7.38 67 1016.7
20260905030257 87 0.0 0.0 0.00 7.38 7.38 66 1016.7
20260905025259 88 0.0 0.0 0.00 7.38 7.38 66 1016.7
20260905024301 88 0.0 0.0 0.00 7.38 7.38 65 1016.7
20260905023245 89 0.0 0.0 0.00 7.38 7.38 64 1016.5